Flag for United Kingdom Weather past 2 weeks in Bristol, England, United Kingdom

Now
50 °F

Scattered clouds.


Feels Like: 45 °F
Forecast: 40 / 61 °F
Wind: 13 mph from Northeast

Location: Bristol / Lulsgate

Current Time: Apr 19, 2015 at 1:57:31 PM

Latest Report: Apr 19, 2015 at 1:20 PM


Visibility: N/A

Pressure: 30.24 "Hg

Humidity: 58%

Dew point: 36 °F

Location of BristolLocation

Historic Weather in Bristol — Graph

°F

Bristol temperature yesterday

Maximum temperature yesterday: 59 °F (at 2:50 PM)
Minimum temperature yesterday: 39 °F (at 4:50 AM)
Average temperature yesterday: 49 °F

Past Weeks' High & Low Weather Summary

 TemperatureHumidityPressure
High63 °F (Apr 6, 2:20 PM)100% (Apr 6, 5:50 AM)30.63 "Hg (Apr 6, 5:50 AM)
Low37 °F (Apr 19, 3:20 AM)42% (Apr 9, 5:50 PM)29.86 "Hg (Apr 11, 2:20 AM)
Average50 °F74%30.25 "Hg
* Reported Apr 4 12:20 PM — Apr 19 12:20 PM, Bristol, Weather by CustomWeather, © 2015

Note: Actual official high and low records may vary slightly from our data, if they occured in-between our weather recording intervals... More about our weather records

Advertising

Bristol weather history for previous 24 hours

 ConditionsComfort  
Time TempWeatherWind HumidityBarometerVisibility
12:20 PM
Sun, Apr 19
46 °FScattered clouds.13 mph62%30.24 "HgN/A
11:50 AM46 °FScattered clouds.10 mph62%30.27 "HgN/A
11:20 AM45 °FScattered clouds.10 mph66%30.27 "HgN/A
10:50 AM45 °FScattered clouds.12 mph61%30.27 "HgN/A
10:20 AM43 °FScattered clouds.14 mph66%30.27 "HgN/A
9:50 AM41 °FPartly sunny.15 mph76%30.27 "HgN/A
9:20 AM39 °FPartly sunny.16 mph75%30.27 "HgN/A
8:50 AM39 °FPartly sunny.18 mph75%30.30 "HgN/A
8:20 AM37 °FPartly sunny.14 mph81%30.30 "HgN/A
7:50 AM37 °FPartly sunny.18 mph81%30.27 "HgN/A
7:20 AM37 °FPartly sunny.16 mph87%30.27 "HgN/A
6:50 AM37 °FPassing clouds.16 mph87%30.27 "HgN/A
6:20 AM37 °FPassing clouds.15 mph87%30.27 "HgN/A
5:20 AM37 °FPassing clouds.12 mph87%30.27 "HgN/A
4:50 AM37 °FLow clouds.10 mph87%30.30 "HgN/A
4:20 AM37 °FPassing clouds.9 mph93%30.27 "HgN/A
3:50 AM37 °FPassing clouds.13 mph93%30.30 "HgN/A
3:20 AM37 °FClear.18 mph93%30.27 "Hg10 mi
2:50 AM39 °FClear.20 mph87%30.30 "Hg10 mi
2:20 AM39 °FClear.16 mph87%30.30 "Hg10 mi
1:50 AM39 °FClear.16 mph87%30.30 "Hg10 mi
1:20 AM41 °FClear.18 mph81%30.30 "Hg10 mi
12:50 AM41 °FClear.20 mph81%30.30 "Hg10 mi
12:20 AM43 °FClear.17 mph76%30.30 "Hg10 mi
11:50 PM
Sat, Apr 18
43 °FClear.18 mph81%30.30 "Hg10 mi
11:20 PM45 °FClear.17 mph76%30.30 "Hg10 mi
10:50 PM46 °FClear.18 mph71%30.30 "Hg10 mi
10:20 PM48 °FClear.15 mph71%30.30 "Hg10 mi
9:50 PM48 °FClear.16 mph66%30.30 "Hg10 mi
9:20 PM50 °FClear.17 mph58%30.30 "Hg10 mi
8:50 PM52 °FSunny.16 mph54%30.27 "Hg10 mi
8:20 PM52 °FSunny.17 mph54%30.27 "Hg10 mi
7:50 PM54 °FSunny.20 mph51%30.24 "Hg10 mi
7:20 PM55 °FSunny.17 mph47%30.24 "Hg10 mi
6:50 PM55 °FSunny.20 mph47%30.24 "Hg10 mi
6:20 PM57 °FSunny.18 mph44%30.27 "Hg10 mi
5:50 PM57 °FSunny.22 mph48%30.27 "Hg10 mi
5:20 PM57 °FPassing clouds.20 mph48%30.27 "HgN/A
4:50 PM59 °FPassing clouds.21 mph45%30.27 "HgN/A
4:20 PM59 °FPassing clouds.23 mph45%30.27 "HgN/A
3:50 PM59 °FPassing clouds.22 mph45%30.27 "HgN/A
3:20 PM59 °FPassing clouds.20 mph45%30.27 "HgN/A
2:50 PM59 °FSunny.20 mph45%30.27 "Hg10 mi
2:20 PM57 °FSunny.18 mph48%30.27 "Hg10 mi
1:50 PM57 °FSunny.22 mph48%30.30 "Hg10 mi
1:20 PM55 °FSunny.20 mph47%30.30 "Hg10 mi
Weather by CustomWeather, © 2015

See weather overviewHow to use our weather pages